Home > Weather > Metlakatla > Past weeks

Flag for USA Past Weather in Metlakatla, Alaska, USA — Yesterday and Last 2 Weeks

Now
52 °F

More clouds than sun.


Feels Like: 51 °F
Forecast: 51 / 56 °F
Wind: 5 mph from East

Location: Metlakatla - Metlakatla Seaplane Base

Current Time: May 31, 2016 at 12:03:12 PM

Latest Report: May 31, 2016 at 11:36 AM


Visibility: 3 mi

Pressure: 30.05 "Hg

Humidity: 82%

Dew Point: 46 °F

Location of MetlakatlaLocation

Past Weather in Metlakatla — Graph

°F

Metlakatla Temperature Yesterday

Maximum temperature yesterday: 61 °F (at 3:36 PM)
Minimum temperature yesterday: 48 °F (at 12:16 AM)
Average temperature yesterday: 54 °F

High & Low Weather Summary for the Past Weeks

 TemperatureHumidityPressure
High72 °F (May 20, 10:56 AM)94% (May 17, 4:36 AM)30.35 "Hg (May 17, 4:36 AM)
Low45 °F (May 19, 2:56 AM)43% (May 20, 11:56 AM)29.73 "Hg (May 21, 5:56 PM)
Average55 °F72%30.04 "Hg
* Reported May 16 10:16 AM — May 31 10:36 AM, Metlakatla, Weather by CustomWeather, © 2016

Note: Actual official high and low records may vary slightly from our data, if they occured in-between our weather recording intervals... More about our weather records

Advertising

Metlakatla Weather History for the Previous 24 Hours

Scroll right to see more
 ConditionsComfort  
Time TempWeatherWind HumidityBarometerVisibility
10:36 AM
Tue, May 31
52 °FMostly cloudy.5 mph77%30.06 "Hg10 mi
10:16 AM52 °FMostly cloudy.3 mph77%30.07 "Hg10 mi
9:56 AM52 °FCloudy.No wind82%30.07 "Hg10 mi
9:36 AM52 °FMore clouds than sun.5 mph77%30.07 "Hg10 mi
9:16 AM52 °FMore clouds than sun.No wind88%30.07 "Hg10 mi
8:56 AM54 °FMore clouds than sun.No wind77%30.07 "Hg10 mi
8:16 AM54 °FOvercast.8 mph72%30.07 "Hg10 mi
7:56 AM54 °FOvercast.10 mph72%30.07 "Hg10 mi
7:36 AM54 °FMostly cloudy.10 mph72%30.08 "Hg10 mi
6:56 AM52 °FOvercast.6 mph77%30.09 "Hg10 mi
6:36 AM52 °FCloudy.No wind77%30.10 "Hg10 mi
6:16 AM52 °FMore clouds than sun.No wind77%30.11 "Hg10 mi
5:56 AM52 °FMostly cloudy.No wind72%30.11 "Hg10 mi
5:36 AM52 °FOvercast.3 mph72%30.12 "Hg10 mi
5:16 AM54 °FMostly cloudy.5 mph67%30.12 "Hg10 mi
4:56 AM54 °FOvercast.5 mph72%30.12 "Hg10 mi
4:36 AM52 °FOvercast.7 mph77%30.13 "Hg10 mi
4:16 AM52 °FMostly cloudy.7 mph77%30.13 "Hg10 mi
3:56 AM52 °FOvercast.6 mph72%30.14 "Hg10 mi
3:36 AM52 °FOvercast.5 mph77%30.15 "Hg10 mi
3:16 AM52 °FMostly cloudy.6 mph72%30.15 "Hg10 mi
2:56 AM52 °FOvercast.5 mph72%30.16 "Hg10 mi
2:36 AM52 °FMostly cloudy.8 mph67%30.18 "Hg10 mi
2:16 AM52 °FOvercast.No wind67%30.18 "Hg10 mi
1:56 AM54 °FOvercast.3 mph63%30.19 "Hg10 mi
1:36 AM54 °FOvercast.7 mph58%30.20 "Hg10 mi
1:16 AM54 °FPassing clouds.6 mph58%30.21 "Hg10 mi
12:36 AM52 °FPassing clouds.5 mph62%30.22 "Hg10 mi
12:16 AM52 °FOvercast.3 mph62%30.23 "Hg10 mi
11:56 PM
Mon, May 30
52 °FPassing clouds.No wind67%30.23 "Hg10 mi
11:36 PM52 °FClear.7 mph67%30.24 "Hg10 mi
11:16 PM52 °FClear.3 mph67%30.24 "Hg10 mi
10:56 PM52 °FPassing clouds.No wind72%30.25 "Hg10 mi
10:36 PM54 °FOvercast.3 mph58%30.26 "Hg10 mi
9:56 PM52 °FMostly cloudy.5 mph67%30.27 "Hg10 mi
9:36 PM54 °FOvercast.3 mph58%30.27 "Hg10 mi
8:56 PM54 °FOvercast.3 mph63%30.28 "Hg10 mi
8:36 PM54 °FOvercast.3 mph63%30.29 "Hg10 mi
8:16 PM54 °FOvercast.5 mph58%30.29 "Hg10 mi
7:56 PM55 °FOvercast.3 mph55%30.29 "Hg10 mi
7:36 PM55 °FOvercast.7 mph55%30.29 "Hg10 mi
7:16 PM55 °FOvercast.5 mph59%30.29 "Hg10 mi
6:56 PM55 °FOvercast.6 mph59%30.30 "Hg10 mi
6:36 PM57 °FOvercast.7 mph55%30.30 "Hg10 mi
5:56 PM57 °FScattered clouds.8 mph59%30.30 "Hg10 mi
5:36 PM57 °FPassing clouds.9 mph59%30.31 "Hg10 mi
5:16 PM57 °FScattered clouds.7 mph63%30.31 "Hg10 mi
4:56 PM59 °FPartly sunny.5 mph55%30.32 "Hg10 mi
4:36 PM59 °FPartly sunny.8 mph59%30.32 "Hg10 mi
4:16 PM59 °FOvercast.6 mph59%30.33 "Hg10 mi
3:56 PM59 °FOvercast.6 mph59%30.33 "Hg10 mi
3:36 PM61 °FOvercast.8 mph55%30.33 "Hg10 mi
3:16 PM59 °FOvercast.6 mph59%30.34 "Hg10 mi
2:56 PM59 °FOvercast.7 mph63%30.34 "Hg10 mi
2:36 PM59 °FCloudy.9 mph63%30.34 "Hg10 mi
2:16 PM57 °FMostly cloudy.6 mph72%30.34 "Hg10 mi
1:56 PM57 °FOvercast.6 mph67%30.34 "Hg10 mi
1:36 PM57 °FOvercast.8 mph59%30.35 "Hg10 mi
1:16 PM57 °FOvercast.6 mph63%30.34 "Hg10 mi
12:56 PM57 °FOvercast.6 mph63%30.34 "Hg10 mi
12:36 PM57 °FOvercast.6 mph67%30.35 "Hg10 mi
12:16 PM55 °FMostly cloudy.5 mph72%30.35 "Hg10 mi
Weather by CustomWeather, © 2016

See weather overviewHow to use our weather pages